User: anonymous
Location: Melbourne
(37.8170°S, 144.9670°E)
Time: 23:24:41
(UTC+10:00)
Language:

Cosmos 962 Rocket - Orbit

View from above orbital plane
View from above orbital plane
View from above satellite
View from above satellite

Ground track
Ground track

The orbit data is extracted from the following two-line orbital elements,

1 10461U 77107B   14201.81784216  .00000041  00000-0  26686-4 0  6072
2 10461 082.9479 082.0542 0032224 239.4955 191.0771 13.76696220844592
Epoch (UTC): 20 July 2014 19:37:41
Eccentricity: 0.0032224
inclination: 82.9479°
perigee height: 952 km
apogee height: 999 km
right ascension of ascending node: 82.0542°
argument of perigee: 239.4955°
revolutions per day: 13.76696220
mean anomaly at epoch: 191.0771°
orbit number at epoch: 84459

The dashed part of the orbit path shows where the satellite is in the earth's shadow,  

DLR